sat.trackr.live / text

‹ back to catalog

HULIANWANG DIGUI-94

NORAD 66002 · 2025-231H

PAYLOAD ACTIVE UNKNOWN

§ Identity

Operator
Country
PRC
Launch date
2025-10-16
Launch site
WSC
Launch vehicle
Mass (kg)
RCS (m²)

External: N2YO · Heavens-Above · Gunter

§ Orbital elements

Epoch: 2026-05-25T01:02:24.559584Z

Period
108.33 min
Inclination
50.0064°
Eccentricity
0.0000943
Mean motion
13.29325315 rev/d
Perigee alt
1,148.6 km
Apogee alt
1,150.0 km
Semi-major
7,527.4 km
B*
4.4664e-5
RAAN
258.5982°
Arg perigee
151.1397°
Mean anomaly
208.9528°
Rev number
2,981

§ Raw data

HULIANWANG DIGUI-941 66002U 25231H   26145.04333981 -.00000103  00000+0  44664-4 0  99982 66002  50.0064 258.5982 0000943 151.1397 208.9528 13.29325315 29811

JSON: /api/v1/satellites/66002 · /tle

For live sub-satellite position, see the globe view (requires WebGL).

§ Visibility from observer

Set your observer location to see the next 7 days of passes ≥ 10°. The values pass through the URL so the page stays shareable.

No JS? Fill the form by hand. The geolocation button needs JavaScript.